Time,TemperatureF,DewpointF,PressureIn,WindDirection,WindDirectionDegrees,WindSpeedMPH,WindSpeedGustMPH,Humidity,HourlyPrecipIn,Conditions,Clouds,dailyrainin,SolarRadiationWatts/m^2,SoftwareType,DateUTC
2013-07-06 00:12:00,86.0,52.0,-100.00,South,189,4.0,9.0,31,0.00,,,0.00,0.000000,,2013-07-06 07:12:00,
2013-07-06 00:22:00,86.0,52.0,-100.00,South,189,4.0,9.0,31,0.00,,,0.00,0.000000,,2013-07-06 07:22:00,
2013-07-06 00:33:00,86.0,52.0,-100.00,South,189,4.0,9.0,31,0.00,,,0.00,0.000000,,2013-07-06 07:33:00,
2013-07-06 00:43:00,86.0,52.0,-100.00,South,189,4.0,9.0,31,0.00,,,0.00,0.000000,,2013-07-06 07:43:00,
2013-07-06 01:11:00,84.0,52.0,-100.00,South,185,4.0,7.0,33,0.00,,,0.00,0.000000,,2013-07-06 08:11:00,
2013-07-06 01:21:00,84.0,52.0,-100.00,South,185,4.0,7.0,33,0.00,,,0.00,0.000000,,2013-07-06 08:21:00,
2013-07-06 01:33:00,84.0,52.0,-100.00,South,185,4.0,7.0,33,0.00,,,0.00,0.000000,,2013-07-06 08:33:00,
2013-07-06 01:43:00,84.0,52.0,-100.00,South,185,4.0,7.0,33,0.00,,,0.00,0.000000,,2013-07-06 08:43:00,
2013-07-06 02:11:00,81.0,52.0,-100.00,SSE,153,5.0,7.0,36,0.00,,,0.00,0.000000,,2013-07-06 09:11:00,
2013-07-06 02:22:00,81.0,52.0,-100.00,SSE,153,5.0,7.0,36,0.00,,,0.00,0.000000,,2013-07-06 09:22:00,
2013-07-06 02:33:00,81.0,52.0,-100.00,SSE,153,5.0,7.0,36,0.00,,,0.00,0.000000,,2013-07-06 09:33:00,
2013-07-06 02:43:00,81.0,52.0,-100.00,SSE,153,5.0,7.0,36,0.00,,,0.00,0.000000,,2013-07-06 09:43:00,
2013-07-06 03:11:00,81.0,54.0,-100.00,South,178,5.0,9.0,39,0.00,,,0.00,0.000000,,2013-07-06 10:11:00,
2013-07-06 03:22:00,81.0,54.0,-100.00,South,178,5.0,9.0,39,0.00,,,0.00,0.000000,,2013-07-06 10:22:00,
2013-07-06 03:33:00,81.0,54.0,-100.00,South,178,5.0,9.0,39,0.00,,,0.00,0.000000,,2013-07-06 10:33:00,
2013-07-06 03:42:00,81.0,54.0,-100.00,South,178,5.0,9.0,39,0.00,,,0.00,0.000000,,2013-07-06 10:42:00,
2013-07-06 04:11:00,80.0,53.0,-100.00,South,179,4.0,7.0,40,0.00,,,0.00,0.000000,,2013-07-06 11:11:00,
2013-07-06 04:22:00,80.0,53.0,-100.00,South,179,4.0,7.0,40,0.00,,,0.00,0.000000,,2013-07-06 11:22:00,
2013-07-06 04:33:00,80.0,53.0,-100.00,South,179,4.0,7.0,40,0.00,,,0.00,0.000000,,2013-07-06 11:33:00,
2013-07-06 04:42:00,80.0,53.0,-100.00,South,179,4.0,7.0,40,0.00,,,0.00,0.000000,,2013-07-06 11:42:00,
2013-07-06 05:11:00,82.0,54.0,-100.00,SSE,165,4.0,6.0,38,0.00,,,0.00,0.000000,,2013-07-06 12:11:00,
2013-07-06 05:22:00,82.0,54.0,-100.00,SSE,165,4.0,6.0,38,0.00,,,0.00,0.000000,,2013-07-06 12:22:00,
2013-07-06 05:33:00,82.0,54.0,-100.00,SSE,165,4.0,6.0,38,0.00,,,0.00,0.000000,,2013-07-06 12:33:00,
2013-07-06 05:43:00,82.0,54.0,-100.00,SSE,165,4.0,6.0,38,0.00,,,0.00,0.000000,,2013-07-06 12:43:00,
2013-07-06 06:12:00,80.0,52.0,-100.00,South,171,5.0,6.0,38,0.00,,,0.00,1.000000,,2013-07-06 13:12:00,
2013-07-06 06:22:00,80.0,52.0,-100.00,South,171,5.0,6.0,38,0.00,,,0.00,1.000000,,2013-07-06 13:22:00,
2013-07-06 06:33:00,80.0,52.0,-100.00,South,171,5.0,6.0,38,0.00,,,0.00,1.000000,,2013-07-06 13:33:00,
2013-07-06 06:43:00,80.0,52.0,-100.00,South,171,5.0,6.0,38,0.00,,,0.00,1.000000,,2013-07-06 13:43:00,
2013-07-06 07:22:00,81.0,54.0,-100.00,SSW,195,4.0,6.0,39,0.00,,,0.00,36.000000,,2013-07-06 14:22:00,
2013-07-06 07:34:00,81.0,54.0,-100.00,SSW,195,4.0,6.0,39,0.00,,,0.00,36.000000,,2013-07-06 14:34:00,
2013-07-06 07:42:00,81.0,54.0,-100.00,SSW,195,4.0,6.0,39,0.00,,,0.00,36.000000,,2013-07-06 14:42:00,
2013-07-06 08:12:00,87.0,54.0,-100.00,SW,218,2.0,5.0,33,0.00,,,0.00,189.000000,,2013-07-06 15:12:00,
2013-07-06 08:22:00,87.0,54.0,-100.00,SW,218,2.0,5.0,33,0.00,,,0.00,189.000000,,2013-07-06 15:22:00,
2013-07-06 08:33:00,87.0,54.0,-100.00,SW,218,2.0,5.0,33,0.00,,,0.00,189.000000,,2013-07-06 15:33:00,
2013-07-06 08:43:00,87.0,54.0,-100.00,SW,218,2.0,5.0,33,0.00,,,0.00,189.000000,,2013-07-06 15:43:00,
2013-07-06 09:23:00,91.0,55.0,-100.00,SSW,200,3.0,4.0,30,0.00,,,0.00,332.000000,,2013-07-06 16:23:00,
2013-07-06 09:37:00,91.0,55.0,-100.00,SSW,200,3.0,4.0,30,0.00,,,0.00,332.000000,,2013-07-06 16:37:00,
2013-07-06 09:46:00,91.0,55.0,-100.00,SSW,200,3.0,4.0,30,0.00,,,0.00,332.000000,,2013-07-06 16:46:00,
2013-07-06 10:18:00,96.0,54.0,-100.00,South,170,6.0,11.0,25,0.00,,,0.00,720.000000,,2013-07-06 17:18:00,
2013-07-06 10:26:00,96.0,54.0,-100.00,South,170,6.0,11.0,25,0.00,,,0.00,720.000000,,2013-07-06 17:26:00,
2013-07-06 10:37:00,96.0,54.0,-100.00,South,170,6.0,11.0,25,0.00,,,0.00,720.000000,,2013-07-06 17:37:00,
2013-07-06 10:44:00,96.0,54.0,-100.00,South,170,6.0,11.0,25,0.00,,,0.00,720.000000,,2013-07-06 17:44:00,
2013-07-06 11:27:00,101.0,50.0,-100.00,South,169,7.0,13.0,18,0.00,,,0.00,867.000000,,2013-07-06 18:27:00,
2013-07-06 11:37:00,101.0,50.0,-100.00,South,169,7.0,13.0,18,0.00,,,0.00,867.000000,,2013-07-06 18:37:00,
2013-07-06 11:46:00,101.0,50.0,-100.00,South,169,7.0,13.0,18,0.00,,,0.00,867.000000,,2013-07-06 18:46:00,
2013-07-06 12:26:00,103.0,51.0,-100.00,South,183,7.0,14.0,18,0.00,,,0.00,1011.000000,,2013-07-06 19:26:00,
2013-07-06 12:36:00,103.0,51.0,-100.00,South,183,7.0,14.0,18,0.00,,,0.00,1011.000000,,2013-07-06 19:36:00,
2013-07-06 12:45:00,103.0,51.0,-100.00,South,183,7.0,14.0,18,0.00,,,0.00,1011.000000,,2013-07-06 19:45:00,
2013-07-06 13:17:00,105.0,50.0,-100.00,SE,143,7.0,15.0,16,0.00,,,0.00,1057.000000,,2013-07-06 20:17:00,
2013-07-06 13:27:00,105.0,50.0,-100.00,SE,143,7.0,15.0,16,0.00,,,0.00,1057.000000,,2013-07-06 20:27:00,
2013-07-06 14:27:00,105.0,51.0,-100.00,SSE,162,7.0,12.0,17,0.00,,,0.00,719.000000,,2013-07-06 21:27:00,
2013-07-06 14:37:00,105.0,51.0,-100.00,SSE,162,7.0,12.0,17,0.00,,,0.00,719.000000,,2013-07-06 21:37:00,
2013-07-06 15:17:00,108.0,50.0,-100.00,SSE,160,7.0,13.0,15,0.00,,,0.00,837.000000,,2013-07-06 22:17:00,
2013-07-06 15:36:00,108.0,50.0,-100.00,SSE,160,7.0,13.0,15,0.00,,,0.00,837.000000,,2013-07-06 22:36:00,
2013-07-06 16:17:00,105.0,51.0,-100.00,SE,139,6.0,15.0,17,0.00,,,0.00,545.000000,,2013-07-06 23:17:00,
2013-07-06 16:26:00,105.0,51.0,-100.00,SE,139,6.0,15.0,17,0.00,,,0.00,545.000000,,2013-07-06 23:26:00,
2013-07-06 16:38:00,105.0,51.0,-100.00,SE,139,6.0,15.0,17,0.00,,,0.00,545.000000,,2013-07-06 23:38:00,
2013-07-06 16:46:00,105.0,51.0,-100.00,SE,139,6.0,15.0,17,0.00,,,0.00,545.000000,,2013-07-06 23:46:00,
2013-07-06 17:36:00,107.0,51.0,-100.00,SSE,150,7.0,12.0,16,0.00,,,0.00,493.000000,,2013-07-07 00:36:00,
2013-07-06 18:16:00,106.0,52.0,-100.00,SE,137,7.0,12.0,17,0.00,,,0.00,432.000000,,2013-07-07 01:16:00,
2013-07-06 18:25:00,106.0,52.0,-100.00,SE,137,7.0,12.0,17,0.00,,,0.00,432.000000,,2013-07-07 01:25:00,
2013-07-06 18:35:00,106.0,52.0,-100.00,SE,137,7.0,12.0,17,0.00,,,0.00,432.000000,,2013-07-07 01:35:00,
2013-07-06 18:44:00,106.0,52.0,-100.00,SE,137,7.0,12.0,17,0.00,,,0.00,432.000000,,2013-07-07 01:44:00,
2013-07-06 19:16:00,103.0,53.0,-100.00,SSE,147,6.0,10.0,19,0.00,,,0.00,222.000000,,2013-07-07 02:16:00,
2013-07-06 19:25:00,103.0,53.0,-100.00,SSE,147,6.0,10.0,19,0.00,,,0.00,222.000000,,2013-07-07 02:25:00,
2013-07-06 19:33:00,103.0,53.0,-100.00,SSE,147,6.0,10.0,19,0.00,,,0.00,222.000000,,2013-07-07 02:33:00,
2013-07-06 19:42:00,103.0,53.0,-100.00,SSE,147,6.0,10.0,19,0.00,,,0.00,222.000000,,2013-07-07 02:42:00,
2013-07-06 20:33:00,99.0,53.0,-100.00,SSE,148,5.0,7.0,22,0.00,,,0.00,56.000000,,2013-07-07 03:33:00,
2013-07-06 20:42:00,99.0,53.0,-100.00,SSE,148,5.0,7.0,22,0.00,,,0.00,56.000000,,2013-07-07 03:42:00,
2013-07-06 21:21:00,95.0,51.0,-100.00,South,183,5.0,7.0,23,0.00,,,0.00,1.000000,,2013-07-07 04:21:00,
2013-07-06 21:31:00,95.0,51.0,-100.00,South,183,5.0,7.0,23,0.00,,,0.00,1.000000,,2013-07-07 04:31:00,
2013-07-06 21:41:00,95.0,51.0,-100.00,South,183,5.0,7.0,23,0.00,,,0.00,1.000000,,2013-07-07 04:41:00,
2013-07-06 22:11:00,94.0,55.0,-100.00,South,173,3.0,7.0,27,0.00,,,0.00,0.000000,,2013-07-07 05:11:00,
2013-07-06 22:21:00,94.0,55.0,-100.00,South,173,3.0,7.0,27,0.00,,,0.00,0.000000,,2013-07-07 05:21:00,
2013-07-06 22:31:00,94.0,55.0,-100.00,South,173,3.0,7.0,27,0.00,,,0.00,0.000000,,2013-07-07 05:31:00,
2013-07-06 22:41:00,94.0,55.0,-100.00,South,173,3.0,7.0,27,0.00,,,0.00,0.000000,,2013-07-07 05:41:00,